Terminal Aerodrome Forecast
Issued by NWS Dodge City, KS

Home | Current Version | Previous Version | Text Only | Print | Product List | Glossary On
Versions: 1 2 3 4 5 6 7 8 9 10 11 12 13 14 15 16 17 18 19 20 21 22 23 24 25 26 27 28 29 30 31 32 33 34 35 36 37 38 39 40 41
000
FTUS43 KDDC 270701 AAA
TAFDDC
TAF AMD
KDDC 270701Z 2707/2806 04014KT P6SM FEW006 OVC026
      TEMPO 2710/2713 4SM -SHRA BR OVC020
     FM271700 06022G28KT P6SM BKN035
     FM280000 02012KT P6SM OVC050=

USA.gov is the U.S. government's official web portal to all federal, state and local government web resources and services.